sat.trackr.live / text

‹ back to catalog

STARLINK-32950

NORAD 63566 · 2025-075U

PAYLOAD ACTIVE UNKNOWN

§ Identity

Operator
Country
US
Launch date
2025-04-13
Launch site
AFETR
Launch vehicle
Mass (kg)
RCS (m²)

Purposes: comms

External: N2YO · Heavens-Above · Gunter

§ Orbital elements

Epoch: 2026-09-20T16:33:52.930944Z

Period
94.27 min
Inclination
43.0017°
Eccentricity
0.0001700
Mean motion
15.27588422 rev/d
Perigee alt
481.9 km
Apogee alt
484.2 km
Semi-major
6,861.2 km
B*
5.4520e-4
RAAN
249.0148°
Arg perigee
269.3684°
Mean anomaly
90.6973°
Rev number
8,175

§ Raw data

STARLINK-329501 63566U 25075U   26263.69019596  .00014775  00000+0  54520-3 0  99912 63566  43.0017 249.0148 0001700 269.3684  90.6973 15.27588422 81756

JSON: /api/v1/satellites/63566 · /tle

For live sub-satellite position, see the globe view (requires WebGL).

§ Visibility from observer

Set your observer location to see the next 7 days of passes ≥ 10°. The values pass through the URL so the page stays shareable.

No JS? Fill the form by hand. The geolocation button needs JavaScript.